Flag for Germany Weather past 2 weeks in Fürstenwalde/Spree, Brandenburg, Germany

Now
60 °F

Passing clouds.


Feels Like: 60 °F
Forecast: 51 / 65 °F
Wind: 3 mph from Southwest

Location: Lindenberg

Current Time: Sep 4, 2015 at 12:51:11 PM

Latest Report: Sep 4, 2015 at 12:00 PM


Visibility: 8 mi

Pressure: 29.94 "Hg

Humidity: 82%

Dew point: 55 °F

Location of Fürstenwalde/SpreeLocation

Historic Weather in Fürstenwalde/Spree — Graph

°F

Fürstenwalde/Spree temperature yesterday

Maximum temperature yesterday: 66 °F (at 12:00 PM)
Minimum temperature yesterday: 54 °F (at 7:00 AM)
Average temperature yesterday: 58 °F

Past Weeks' High & Low Weather Summary

 TemperatureHumidityPressure
High95 °F (Aug 31, 4:00 PM)99% (Sep 4, 3:00 AM)30.31 "Hg (Sep 4, 3:00 AM)
Low53 °F (Sep 4, 2:00 AM)24% (Aug 20, 5:00 PM)29.67 "Hg (Sep 1, 6:00 PM)
Average68 °F61%30.00 "Hg
* Reported Aug 20 12:00 Noon — Sep 4 12:00 Noon, Fürstenwalde/Spree, Weather by CustomWeather, © 2015

Note: Actual official high and low records may vary slightly from our data, if they occured in-between our weather recording intervals... More about our weather records

Advertising

Fürstenwalde/Spree weather history for previous 24 hours

 ConditionsComfort  
Time TempWeatherWind HumidityBarometerVisibility
12:00 PM
Fri, Sep 4
60 °FPassing clouds.3 mph82%29.94 "Hg8 mi
11:00 AM58 °FPassing clouds.2 mph88%29.94 "Hg6 mi
10:00 AM55 °FFog.2 mph97%29.94 "Hg4 mi
9:00 AM55 °FFog.1 mph99%29.93 "Hg1 mi
8:00 AM54 °FFog.1 mph99%29.93 "Hg1 mi
7:00 AM54 °FFog.3 mph99%29.93 "Hg0 mi
5:00 AM54 °FFog.1 mph99%29.92 "Hg0 mi
4:00 AM54 °FFog.2 mph99%29.93 "Hg0 mi
3:00 AM54 °FFog.2 mph99%29.92 "Hg0 mi
2:00 AM53 °FFog.1 mph98%29.92 "Hg0 mi
1:00 AM54 °FFog.2 mph98%29.93 "Hg0 mi
11:00 PM
Thu, Sep 3
55 °FFog.2 mph96%29.94 "Hg2 mi
10:00 PM57 °FPassing clouds.2 mph96%29.93 "Hg6 mi
9:00 PM57 °FOvercast.1 mph95%29.93 "Hg9 mi
8:00 PM58 °FLight rain. Overcast.1 mph95%29.93 "Hg5 mi
7:00 PM59 °FLight rain. Overcast.1 mph93%29.93 "Hg9 mi
6:00 PM59 °FLight rain. Overcast.2 mph91%29.93 "Hg16 mi
5:00 PM62 °FLight rain. Overcast.3 mph86%29.93 "Hg19 mi
4:00 PM62 °FOvercast.1 mph79%29.92 "Hg19 mi
3:00 PM60 °FOvercast.2 mph90%29.93 "Hg9 mi
2:00 PM59 °FLight rain. Overcast.2 mph89%29.95 "Hg7 mi
1:00 PM58 °FLight rain. Overcast.1 mph87%29.96 "Hg7 mi
12:00 PM66 °FOvercast.2 mph57%29.94 "Hg25 mi
Weather by CustomWeather, © 2015

See weather overviewHow to use our weather pages